Franklin, NC

12:27 PM EDT on August 20, 2017 (GMT -0400)
Franklin

Weather History for K1A5 - April, 2014

Change the Weather History Date:

Wednesday, April 9, 2014

  Actual Average (KTOC) Record (KTOC)
Temperature  
Mean Temperature 47 °F -  
Max Temperature 60 °F 70 °F 86 °F (2015)
Min Temperature 34 °F 44 °F 38 °F (2016)
Degree Days  
Heating Degree Days 18    
Moisture  
Dew Point 33 °F    
Average Humidity 62    
Maximum Humidity 98    
Minimum Humidity 25    
Precipitation  
Precipitation 0.00 in - - ()
Sea Level Pressure  
Sea Level Pressure 30.01 in    
Wind  
Wind Speed 4 mph (NW)    
Max Wind Speed 14 mph    
Max Gust Speed 22 mph    
Visibility 10 miles    
Events      
Averages and records for this station are not official NWS values.
T = Trace of Precipitation, MM = Missing Value Source: NWS Daily Summary

Daily Weather History Graph

Daily Weather History Graph

Search for Another Location

Airport or City:

Trip Planner

Search our weather history database for the weather conditions in past years. The results will help you decide how hot, cold, wet, or windy it might be!

Date:

Astronomy

Apr. 09, 2014 Rise Set
Actual Time 7:09 AM EDT 8:01 PM EDT
Civil Twilight 6:43 AM EDT 8:27 PM EDT
Nautical Twilight 6:13 AM EDT 8:58 PM EDT
Astronomical Twilight 5:41 AM EDT 9:29 PM EDT
Moon 2:59 PM EDT (4/9) 3:46 AM EDT (4/9)
Length of Visible Light 13h 43m
Length of Day
12h 52m
Waxing Gibbous, 71% of the Moon is Illuminated
Apr 9
Waxing Gibbous
Apr 15
Full
Apr 22
Last Quarter
Apr 29
New
May 6
First Quarter

Hourly Weather History & Observations

Time (EDT) Temp. Windchill Dew Point Humidity Pressure Visibility Wind Dir Wind Speed Gust Speed Precip Events Conditions
12:15 AM 34.7 °F - 33.1 °F 94% 29.82 in 10.0 mi Calm Calm - N/A   Clear
12:35 AM 34.5 °F - 33.3 °F 95% 29.83 in 7.0 mi Calm Calm - N/A   Clear
12:55 AM 34.7 °F - 34.0 °F 97% 29.83 in 7.0 mi Calm Calm - N/A   Mostly Cloudy
1:15 AM 35.4 °F - 34.9 °F 98% 29.85 in 10.0 mi Calm Calm - N/A   Overcast
1:35 AM 36.0 °F - 35.2 °F 97% 29.85 in 10.0 mi Calm Calm - N/A   Overcast
1:55 AM 36.7 °F - 36.0 °F 97% 29.85 in 10.0 mi Calm Calm - N/A   Overcast
2:15 AM 36.5 °F - 35.2 °F 95% 29.85 in 7.0 mi Calm Calm - N/A   Mostly Cloudy
2:35 AM 36.9 °F - 35.8 °F 96% 29.85 in 10.0 mi Calm Calm - N/A   Overcast
2:55 AM 38.3 °F - 37.2 °F 96% 29.85 in 10.0 mi Calm Calm - N/A   Overcast
3:15 AM 38.3 °F - 37.4 °F 97% 29.85 in 10.0 mi Calm Calm - N/A   Overcast
3:35 AM 38.3 °F - 36.7 °F 94% 29.85 in 10.0 mi Calm Calm - N/A   Mostly Cloudy
3:55 AM 37.9 °F - 36.5 °F 95% 29.86 in 10.0 mi Calm Calm - N/A   Scattered Clouds
4:15 AM 38.7 °F - 37.4 °F 95% 29.86 in 10.0 mi Calm Calm - N/A   Mostly Cloudy
4:35 AM 38.5 °F - 37.2 °F 95% 29.86 in 10.0 mi Calm Calm - N/A   Mostly Cloudy
4:55 AM 39.4 °F - 37.9 °F 95% 29.87 in 10.0 mi Calm Calm - N/A   Overcast
5:15 AM 45.0 °F 41.8 °F 39.2 °F 80% 29.87 in 10.0 mi WNW 5.8 mph - N/A   Overcast
5:35 AM 46.4 °F 44.3 °F 38.5 °F 74% 29.88 in 10.0 mi North 4.6 mph - N/A   Overcast
5:55 AM 46.4 °F 45.2 °F 38.7 °F 74% 29.88 in 10.0 mi WNW 3.5 mph - N/A   Overcast
6:15 AM 46.6 °F - 38.5 °F 73% 29.90 in 10.0 mi WNW 8.1 mph - N/A   Overcast
6:35 AM 46.8 °F - 38.5 °F 73% 29.91 in 10.0 mi WNW 5.8 mph - N/A   Overcast
6:55 AM 46.6 °F - 38.7 °F 74% 29.92 in 10.0 mi WNW 5.8 mph - N/A   Overcast
7:15 AM 46.4 °F 45.2 °F 38.8 °F 75% 29.94 in 10.0 mi WNW 3.5 mph - N/A   Overcast
7:35 AM 46.6 °F - 38.5 °F 73% 29.95 in 10.0 mi WNW 5.8 mph - N/A   Overcast
7:55 AM 46.6 °F - 38.3 °F 73% 29.96 in 10.0 mi WNW 4.6 mph - N/A   Mostly Cloudy
8:15 AM 47.3 °F - 38.7 °F 72% 29.97 in 10.0 mi NNW 3.5 mph - N/A   Mostly Cloudy
8:35 AM 48.0 °F - 38.3 °F 69% 29.98 in 10.0 mi NW 5.8 mph - N/A   Mostly Cloudy
8:55 AM 49.1 °F - 38.3 °F 66% 29.99 in 10.0 mi WNW 6.9 mph - N/A   Scattered Clouds
9:15 AM 49.6 °F - 37.8 °F 64% 30.00 in 10.0 mi WNW 8.1 mph - N/A   Mostly Cloudy
9:35 AM 48.6 °F - 37.2 °F 65% 30.01 in 10.0 mi WNW 11.5 mph - N/A   Overcast
9:55 AM 49.3 °F - 37.8 °F 65% 30.02 in 10.0 mi NW 3.5 mph - N/A   Overcast
10:15 AM 50.2 °F - 37.8 °F 62% 30.03 in 10.0 mi West 8.1 mph - N/A   Overcast
10:35 AM 51.6 °F - 37.6 °F 59% 30.04 in 10.0 mi WNW 8.1 mph 16.1 mph N/A   Overcast
10:55 AM 52.0 °F - 37.4 °F 58% 30.04 in 10.0 mi WNW 9.2 mph 16.1 mph N/A   Mostly Cloudy
11:15 AM 51.6 °F - 36.3 °F 56% 30.05 in 10.0 mi NW 11.5 mph 16.1 mph N/A   Scattered Clouds
11:35 AM 53.1 °F - 35.1 °F 50% 30.04 in 10.0 mi North 10.4 mph 19.6 mph N/A   Clear
11:55 AM 54.1 °F - 32.2 °F 43% 30.05 in 10.0 mi North 10.4 mph - N/A   Scattered Clouds
12:15 PM 54.3 °F - 32.0 °F 43% 30.05 in 10.0 mi WNW 10.4 mph 17.3 mph N/A   Scattered Clouds
12:35 PM 56.3 °F - 30.7 °F 38% 30.06 in 10.0 mi NW 11.5 mph 21.9 mph N/A   Scattered Clouds
12:55 PM 55.9 °F - 29.5 °F 36% 30.06 in 10.0 mi North 11.5 mph 18.4 mph N/A   Scattered Clouds
1:15 PM 57.2 °F - 29.1 °F 34% 30.06 in 10.0 mi WNW 8.1 mph 21.9 mph N/A   Scattered Clouds
1:35 PM 57.2 °F - 29.1 °F 34% 30.06 in 10.0 mi WNW 13.8 mph 18.4 mph N/A   Clear
1:55 PM 57.7 °F - 28.2 °F 32% 30.06 in 10.0 mi WNW 11.5 mph 21.9 mph N/A   Clear
2:15 PM 58.3 °F - 27.5 °F 31% 30.06 in 10.0 mi North 8.1 mph 16.1 mph N/A   Clear
2:35 PM 58.5 °F - 29.5 °F 33% 30.07 in 10.0 mi NNW 10.4 mph 19.6 mph N/A   Clear
2:55 PM 58.8 °F - 27.7 °F 31% 30.07 in 10.0 mi NW 11.5 mph 18.4 mph N/A   Scattered Clouds
3:15 PM 59.0 °F - 25.5 °F 28% 30.06 in 10.0 mi NW 9.2 mph - N/A   Scattered Clouds
3:35 PM 59.5 °F - 27.7 °F 30% 30.06 in 10.0 mi WNW 8.1 mph 19.6 mph N/A   Scattered Clouds
3:55 PM 59.2 °F - 28.0 °F 31% 30.06 in 10.0 mi WNW 9.2 mph - N/A   Scattered Clouds
4:15 PM 59.5 °F - 27.0 °F 29% 30.06 in 10.0 mi West 11.5 mph - N/A   Scattered Clouds
4:35 PM 59.5 °F - 26.2 °F 28% 30.05 in 10.0 mi West 10.4 mph 16.1 mph N/A   Clear
4:55 PM 59.9 °F - 25.9 °F 27% 30.06 in 10.0 mi NW 6.9 mph - N/A   Scattered Clouds
5:15 PM 59.7 °F - 26.4 °F 28% 30.06 in 10.0 mi North 9.2 mph - N/A   Scattered Clouds
5:35 PM 60.1 °F - 25.9 °F 27% 30.06 in 10.0 mi NW 4.6 mph 9.2 mph N/A   Scattered Clouds
5:55 PM 59.4 °F - 23.5 °F 25% 30.06 in 10.0 mi NW 8.1 mph - N/A   Scattered Clouds
6:15 PM 59.0 °F - 24.6 °F 27% 30.07 in 10.0 mi NW 9.2 mph - N/A   Clear
6:35 PM 58.6 °F - 24.4 °F 27% 30.08 in 10.0 mi NW 11.5 mph - N/A   Clear
6:55 PM 58.1 °F - 23.4 °F 26% 30.09 in 10.0 mi NW 9.2 mph - N/A   Scattered Clouds
7:15 PM 57.2 °F - 23.7 °F 28% 30.09 in 10.0 mi NNW 6.9 mph - N/A   Scattered Clouds
7:35 PM 56.5 °F - 23.5 °F 28% 30.10 in 10.0 mi NW 8.1 mph - N/A   Clear
7:55 PM 55.8 °F - 22.6 °F 28% 30.10 in 10.0 mi NNW 5.8 mph - N/A   Clear
8:15 PM 54.7 °F - 23.2 °F 29% 30.11 in 10.0 mi NW 3.5 mph - N/A   Clear
8:35 PM 46.9 °F - 32.0 °F 56% 30.12 in 10.0 mi Calm Calm - N/A   Clear
8:55 PM 44.1 °F - 33.1 °F 65% 30.13 in 10.0 mi Calm Calm - N/A   Clear
9:15 PM 43.7 °F - 33.3 °F 67% 30.14 in 10.0 mi Calm Calm - N/A   Clear
9:35 PM 41.4 °F - 35.1 °F 78% 30.15 in 10.0 mi Calm Calm - N/A   Clear
9:55 PM 40.3 °F - 32.7 °F 74% 30.16 in 10.0 mi Calm Calm - N/A   Clear
10:15 PM 39.2 °F - 33.6 °F 80% 30.16 in 10.0 mi Calm Calm - N/A   Clear
10:35 PM 39.2 °F - 34.7 °F 84% 30.17 in 10.0 mi Calm Calm - N/A   Clear
10:55 PM 37.2 °F - 32.5 °F 83% 30.17 in 10.0 mi Calm Calm - N/A   Clear
11:15 PM 36.9 °F - 32.5 °F 84% 30.18 in 10.0 mi Calm Calm - N/A   Clear
11:35 PM 36.1 °F - 32.0 °F 85% 30.18 in 10.0 mi Calm Calm - N/A   Clear
11:55 PM 35.1 °F - 31.5 °F 87% 30.18 in 10.0 mi Calm Calm - N/A   Clear